Time,TemperatureF,DewpointF,PressureIn,WindDirection,WindDirectionDegrees,WindSpeedMPH,WindSpeedGustMPH,Humidity,HourlyPrecipIn,Conditions,Clouds,dailyrainin,SoftwareType,DateUTC
2013-02-03 00:03:00,68.0,60.0,26.41,East,98,10.0,14.0,76,0.00,,,0.00,,2013-02-03 05:03:00,
2013-02-03 00:12:00,68.0,60.0,26.41,East,98,10.0,14.0,76,0.00,,,0.00,,2013-02-03 05:12:00,
2013-02-03 00:22:00,68.0,60.0,26.41,East,80,0.0,10.0,76,0.00,,,0.00,,2013-02-03 05:22:00,
2013-02-03 00:32:00,68.0,60.0,26.41,ENE,70,2.0,7.0,75,0.00,,,0.00,,2013-02-03 05:32:00,
2013-02-03 00:42:00,68.0,60.0,26.41,ENE,70,2.0,7.0,75,0.00,,,0.00,,2013-02-03 05:42:00,
2013-02-03 00:52:00,68.0,60.0,26.41,East,82,0.0,7.0,76,0.00,,,0.00,,2013-02-03 05:52:00,
2013-02-03 01:02:00,68.0,61.0,26.45,ENE,75,2.0,9.0,77,0.00,,,0.00,,2013-02-03 06:02:00,
2013-02-03 01:11:00,68.0,61.0,26.45,ENE,75,2.0,9.0,77,0.00,,,0.00,,2013-02-03 06:11:00,
2013-02-03 01:21:00,67.0,59.0,26.43,ENE,72,0.0,5.0,76,0.00,,,0.00,,2013-02-03 06:21:00,
2013-02-03 01:32:00,68.0,61.0,26.43,NE,56,1.0,5.0,77,0.00,,,0.00,,2013-02-03 06:32:00,
2013-02-03 01:42:00,68.0,61.0,26.43,NE,56,1.0,5.0,77,0.00,,,0.00,,2013-02-03 06:42:00,
2013-02-03 01:52:00,67.0,60.0,26.41,ENE,75,0.0,3.0,78,0.00,,,0.00,,2013-02-03 06:52:00,
2013-02-03 02:01:00,67.0,60.0,26.42,ENE,74,1.0,5.0,78,0.00,,,0.00,,2013-02-03 07:01:00,
2013-02-03 02:11:00,67.0,60.0,26.42,ENE,74,1.0,5.0,78,0.00,,,0.00,,2013-02-03 07:11:00,
2013-02-03 02:21:00,67.0,60.0,30.07,ENE,57,0.0,6.0,78,0.00,,,0.00,,2013-02-03 07:21:00,
2013-02-03 02:31:00,67.0,60.0,30.07,ENE,57,0.0,3.0,78,0.00,,,0.00,,2013-02-03 07:31:00,
2013-02-03 02:42:00,67.0,60.0,30.07,ENE,57,0.0,3.0,78,0.00,,,0.00,,2013-02-03 07:42:00,
2013-02-03 02:52:00,67.0,59.0,30.07,NE,40,0.0,6.0,76,0.00,,,0.00,,2013-02-03 07:52:00,
2013-02-03 03:01:00,67.0,59.0,30.07,NE,42,5.0,8.0,76,0.00,,,0.00,,2013-02-03 08:01:00,
2013-02-03 03:11:00,67.0,59.0,30.07,NE,42,5.0,8.0,76,0.00,,,0.00,,2013-02-03 08:11:00,
2013-02-03 03:22:00,68.0,60.0,30.06,NE,42,3.0,9.0,76,0.00,,,0.00,,2013-02-03 08:22:00,
2013-02-03 03:32:00,68.0,60.0,30.06,NNE,31,5.0,11.0,76,0.00,,,0.00,,2013-02-03 08:32:00,
2013-02-03 03:41:00,68.0,60.0,30.06,NNE,31,5.0,11.0,76,0.00,,,0.00,,2013-02-03 08:41:00,
2013-02-03 03:52:00,68.0,60.0,30.06,NE,38,5.0,13.0,75,0.00,,,0.00,,2013-02-03 08:52:00,
2013-02-03 04:03:00,68.0,60.0,21.78,NNE,25,5.0,11.0,75,0.00,,,0.00,,2013-02-03 09:03:00,
2013-02-03 04:11:00,68.0,60.0,21.78,NNE,25,5.0,11.0,75,0.00,,,0.00,,2013-02-03 09:11:00,
2013-02-03 04:21:00,68.0,60.0,26.43,NNE,31,10.0,13.0,75,0.00,,,0.00,,2013-02-03 09:21:00,
2013-02-03 04:31:00,68.0,61.0,32.24,NNE,21,7.0,13.0,77,0.00,,,0.00,,2013-02-03 09:31:00,
2013-02-03 04:42:00,68.0,61.0,32.24,NNE,21,7.0,13.0,77,0.00,,,0.00,,2013-02-03 09:42:00,
2013-02-03 04:52:00,67.0,60.0,32.24,NE,43,6.0,13.0,78,0.00,,,0.00,,2013-02-03 09:52:00,
2013-02-03 05:01:00,67.0,60.0,32.24,North,11,4.0,14.0,78,0.00,,,0.00,,2013-02-03 10:01:00,
2013-02-03 05:11:00,67.0,60.0,32.24,North,11,4.0,14.0,78,0.00,,,0.00,,2013-02-03 10:11:00,
2013-02-03 05:21:00,66.0,59.0,30.06,NE,43,8.0,16.0,79,0.00,,,0.00,,2013-02-03 10:21:00,
2013-02-03 05:31:00,66.0,59.0,30.07,NNE,31,9.0,15.0,79,0.00,,,0.00,,2013-02-03 10:31:00,
2013-02-03 05:42:00,66.0,59.0,30.07,NNE,31,9.0,15.0,79,0.00,,,0.00,,2013-02-03 10:42:00,
2013-02-03 05:53:00,66.0,59.0,30.05,NNE,27,10.0,16.0,79,0.00,,,0.00,,2013-02-03 10:53:00,
2013-02-03 06:02:00,66.0,59.0,30.05,NE,43,9.0,16.0,79,0.00,,,0.00,,2013-02-03 11:02:00,
2013-02-03 06:11:00,66.0,59.0,30.05,NE,43,9.0,16.0,79,0.00,,,0.00,,2013-02-03 11:11:00,
2013-02-03 06:22:00,66.0,59.0,30.05,NNE,19,9.0,18.0,78,0.00,,,0.00,,2013-02-03 11:22:00,
2013-02-03 06:32:00,66.0,59.0,30.08,NNE,31,8.0,17.0,77,0.00,,,0.00,,2013-02-03 11:32:00,
2013-02-03 06:42:00,66.0,59.0,30.08,NNE,31,8.0,17.0,77,0.00,,,0.00,,2013-02-03 11:42:00,
2013-02-03 06:52:00,65.0,57.0,26.42,NNE,29,6.0,19.0,76,0.00,,,0.00,,2013-02-03 11:52:00,
2013-02-03 07:02:00,66.0,58.0,26.43,NNE,29,10.0,20.0,76,0.00,,,0.00,,2013-02-03 12:02:00,
2013-02-03 07:12:00,66.0,58.0,26.43,NNE,29,10.0,20.0,76,0.00,,,0.00,,2013-02-03 12:12:00,
2013-02-03 07:22:00,65.0,57.0,26.41,NNE,27,8.0,20.0,75,0.00,,,0.00,,2013-02-03 12:22:00,
2013-02-03 07:32:00,65.0,57.0,30.11,NNE,17,13.0,20.0,75,0.00,,,0.00,,2013-02-03 12:32:00,
2013-02-03 07:42:00,65.0,57.0,30.11,NNE,17,13.0,20.0,75,0.00,,,0.00,,2013-02-03 12:42:00,
2013-02-03 07:53:00,65.0,57.0,30.12,NE,50,14.0,20.0,75,0.00,,,0.00,,2013-02-03 12:53:00,
2013-02-03 08:03:00,65.0,56.0,30.12,NE,41,13.0,19.0,74,0.00,,,0.00,,2013-02-03 13:03:00,
2013-02-03 08:11:00,65.0,57.0,30.12,NE,37,11.0,19.0,75,0.00,,,0.00,,2013-02-03 13:11:00,
2013-02-03 08:22:00,65.0,57.0,30.12,NE,37,11.0,19.0,75,0.00,,,0.00,,2013-02-03 13:22:00,
2013-02-03 08:32:00,65.0,56.0,30.12,North,358,14.0,20.0,74,0.00,,,0.00,,2013-02-03 13:32:00,
2013-02-03 08:42:00,65.0,56.0,30.12,North,358,14.0,20.0,74,0.00,,,0.00,,2013-02-03 13:42:00,
2013-02-03 08:52:00,65.0,56.0,26.41,NNE,15,14.0,21.0,73,0.00,,,0.00,,2013-02-03 13:52:00,
2013-02-03 09:02:00,65.0,56.0,26.41,NE,44,15.0,21.0,72,0.00,,,0.00,,2013-02-03 14:02:00,
2013-02-03 09:11:00,65.0,56.0,26.41,NE,44,15.0,21.0,72,0.00,,,0.00,,2013-02-03 14:11:00,
2013-02-03 09:22:00,65.0,56.0,26.41,NNE,26,13.0,20.0,74,0.00,,,0.00,,2013-02-03 14:22:00,
2013-02-03 09:32:00,65.0,56.0,26.41,NE,42,14.0,22.0,73,0.00,,,0.00,,2013-02-03 14:32:00,
2013-02-03 09:42:00,65.0,56.0,26.41,NE,42,14.0,22.0,73,0.00,,,0.00,,2013-02-03 14:42:00,
2013-02-03 09:52:00,65.0,56.0,26.41,NE,46,12.0,21.0,72,0.00,,,0.00,,2013-02-03 14:52:00,
2013-02-03 10:03:00,65.0,56.0,30.16,NE,43,14.0,20.0,74,0.00,,,0.00,,2013-02-03 15:03:00,
2013-02-03 10:11:00,65.0,56.0,30.16,NE,43,14.0,20.0,74,0.00,,,0.00,,2013-02-03 15:11:00,
2013-02-03 10:22:00,65.0,56.0,26.41,NE,40,15.0,19.0,72,0.00,,,0.00,,2013-02-03 15:22:00,
2013-02-03 10:33:00,66.0,56.0,26.41,NNE,29,11.0,21.0,71,0.00,,,0.00,,2013-02-03 15:33:00,
2013-02-03 10:42:00,66.0,56.0,26.41,NNE,29,11.0,21.0,71,0.00,,,0.00,,2013-02-03 15:42:00,
2013-02-03 10:52:00,66.0,56.0,26.42,NE,46,14.0,19.0,70,0.00,,,0.00,,2013-02-03 15:52:00,
2013-02-03 11:03:00,67.0,57.0,26.42,NE,42,13.0,20.0,70,0.00,,,0.00,,2013-02-03 16:03:00,
2013-02-03 11:11:00,67.0,57.0,26.42,NE,42,13.0,20.0,70,0.00,,,0.00,,2013-02-03 16:11:00,
2013-02-03 11:22:00,68.0,57.0,26.41,NE,47,13.0,19.0,67,0.00,,,0.00,,2013-02-03 16:22:00,
2013-02-03 11:33:00,68.0,57.0,26.41,NNE,27,11.0,18.0,67,0.00,,,0.00,,2013-02-03 16:33:00,
2013-02-03 11:42:00,68.0,57.0,26.41,NNE,27,11.0,18.0,67,0.00,,,0.00,,2013-02-03 16:42:00,
2013-02-03 11:52:00,69.0,56.0,26.41,NNE,33,15.0,19.0,64,0.00,,,0.00,,2013-02-03 16:52:00,
2013-02-03 12:02:00,69.0,57.0,26.41,NNE,33,11.0,16.0,65,0.00,,,0.00,,2013-02-03 17:02:00,
2013-02-03 12:11:00,69.0,57.0,26.41,NNE,33,11.0,16.0,65,0.00,,,0.00,,2013-02-03 17:11:00,
2013-02-03 12:22:00,70.0,57.0,26.42,NE,36,11.0,17.0,63,0.00,,,0.00,,2013-02-03 17:22:00,
2013-02-03 12:32:00,70.0,56.0,26.42,NE,34,6.0,16.0,62,0.00,,,0.00,,2013-02-03 17:32:00,
2013-02-03 12:42:00,70.0,56.0,26.42,NE,34,6.0,16.0,62,0.00,,,0.00,,2013-02-03 17:42:00,
2013-02-03 12:52:00,71.0,57.0,30.86,NNE,31,9.0,14.0,61,0.00,,,0.00,,2013-02-03 17:52:00,
2013-02-03 13:03:00,71.0,56.0,30.86,NNE,32,7.0,14.0,60,0.00,,,0.00,,2013-02-03 18:03:00,
2013-02-03 13:12:00,71.0,56.0,30.86,NNE,32,7.0,14.0,60,0.00,,,0.00,,2013-02-03 18:12:00,
2013-02-03 13:23:00,72.0,56.0,26.41,North,9,6.0,15.0,58,0.00,,,0.00,,2013-02-03 18:23:00,
2013-02-03 13:33:00,72.0,56.0,26.41,NE,56,7.0,14.0,58,0.00,,,0.00,,2013-02-03 18:33:00,
2013-02-03 13:42:00,72.0,56.0,26.41,NE,56,7.0,14.0,58,0.00,,,0.00,,2013-02-03 18:42:00,
2013-02-03 13:52:00,73.0,56.0,25.19,NNE,25,3.0,15.0,55,0.00,,,0.00,,2013-02-03 18:52:00,
2013-02-03 14:02:00,73.0,55.0,26.41,NNE,33,2.0,13.0,53,0.00,,,0.00,,2013-02-03 19:02:00,
2013-02-03 14:11:00,73.0,55.0,26.41,NNE,33,2.0,13.0,53,0.00,,,0.00,,2013-02-03 19:11:00,
2013-02-03 14:22:00,73.0,55.0,26.41,NE,41,4.0,11.0,53,0.00,,,0.00,,2013-02-03 19:22:00,
2013-02-03 14:32:00,74.0,54.0,24.74,NE,40,1.0,10.0,50,0.00,,,0.00,,2013-02-03 19:32:00,
2013-02-03 14:42:00,74.0,54.0,24.74,NE,40,1.0,10.0,50,0.00,,,0.00,,2013-02-03 19:42:00,
2013-02-03 14:52:00,73.0,53.0,26.46,NNE,30,3.0,7.0,50,0.00,,,0.00,,2013-02-03 19:52:00,
2013-02-03 15:01:00,73.0,53.0,31.57,NNE,30,3.0,7.0,50,0.00,,,0.00,,2013-02-03 20:01:00,
2013-02-03 15:12:00,73.0,53.0,31.57,NNE,30,3.0,7.0,50,0.00,,,0.00,,2013-02-03 20:12:00,
2013-02-03 15:22:00,72.0,52.0,27.64,North,1,5.0,9.0,49,0.00,,,0.00,,2013-02-03 20:22:00,
2013-02-03 15:33:00,72.0,57.0,26.41,NNW,331,7.0,10.0,60,0.00,,,0.00,,2013-02-03 20:33:00,
2013-02-03 15:42:00,72.0,57.0,26.41,NNW,331,7.0,10.0,60,0.00,,,0.00,,2013-02-03 20:42:00,
2013-02-03 15:52:00,70.0,57.0,30.06,NNW,339,8.0,12.0,64,0.00,,,0.00,,2013-02-03 20:52:00,
2013-02-03 16:03:00,70.0,57.0,30.06,NNW,334,4.0,12.0,64,0.00,,,0.00,,2013-02-03 21:03:00,
2013-02-03 16:11:00,70.0,57.0,30.06,NNW,334,4.0,12.0,64,0.00,,,0.00,,2013-02-03 21:11:00,
2013-02-03 16:21:00,70.0,58.0,26.41,NW,321,1.0,11.0,65,0.00,,,0.00,,2013-02-03 21:21:00,
2013-02-03 16:32:00,70.0,57.0,30.06,NNW,339,7.0,13.0,63,0.00,,,0.00,,2013-02-03 21:32:00,
2013-02-03 16:42:00,70.0,57.0,30.06,NNW,339,7.0,13.0,63,0.00,,,0.00,,2013-02-03 21:42:00,
2013-02-03 16:52:00,70.0,57.0,30.06,NNW,335,1.0,12.0,63,0.00,,,0.00,,2013-02-03 21:52:00,
2013-02-03 17:01:00,70.0,57.0,30.06,NNW,342,4.0,9.0,64,0.00,,,0.00,,2013-02-03 22:01:00,
2013-02-03 17:11:00,70.0,57.0,30.06,NNW,342,4.0,9.0,64,0.00,,,0.00,,2013-02-03 22:11:00,
2013-02-03 17:21:00,70.0,57.0,30.06,NNW,342,2.0,7.0,64,0.00,,,0.00,,2013-02-03 22:21:00,
2013-02-03 17:32:00,70.0,57.0,30.06,NNW,327,0.0,5.0,64,0.00,,,0.00,,2013-02-03 22:32:00,
2013-02-03 17:42:00,70.0,57.0,30.06,NNW,327,0.0,5.0,64,0.00,,,0.00,,2013-02-03 22:42:00,
2013-02-03 17:52:00,70.0,57.0,30.06,WNW,303,0.0,6.0,64,0.00,,,0.00,,2013-02-03 22:52:00,
2013-02-03 18:01:00,70.0,57.0,30.06,NW,306,0.0,6.0,64,0.00,,,0.00,,2013-02-03 23:01:00,
2013-02-03 18:12:00,70.0,57.0,30.06,NW,306,0.0,6.0,64,0.00,,,0.00,,2013-02-03 23:12:00,
2013-02-03 18:22:00,69.0,55.0,30.07,NW,306,0.0,0.0,62,0.00,,,0.00,,2013-02-03 23:22:00,
2013-02-03 18:32:00,69.0,56.0,26.42,NW,306,0.0,0.0,63,0.00,,,0.00,,2013-02-03 23:32:00,
2013-02-03 18:42:00,69.0,56.0,26.42,NW,306,0.0,0.0,63,0.00,,,0.00,,2013-02-03 23:42:00,
2013-02-03 18:52:00,68.0,54.0,32.24,NE,55,5.0,10.0,60,0.00,,,0.00,,2013-02-03 23:52:00,
2013-02-03 19:02:00,69.0,52.0,32.24,NE,37,14.0,21.0,55,0.00,,,0.00,,2013-02-04 00:02:00,
2013-02-03 19:11:00,69.0,52.0,32.24,NE,37,14.0,21.0,55,0.00,,,0.00,,2013-02-04 00:11:00,
2013-02-03 19:22:00,69.0,52.0,30.08,ENE,69,14.0,18.0,54,0.00,,,0.00,,2013-02-04 00:22:00,
2013-02-03 19:32:00,69.0,52.0,30.08,ENE,58,12.0,18.0,54,0.00,,,0.00,,2013-02-04 00:32:00,
2013-02-03 19:42:00,69.0,52.0,30.08,ENE,58,12.0,18.0,54,0.00,,,0.00,,2013-02-04 00:42:00,
2013-02-03 19:52:00,69.0,52.0,30.09,NE,51,13.0,17.0,55,0.00,,,0.00,,2013-02-04 00:52:00,
2013-02-03 20:01:00,68.0,52.0,30.08,NNE,31,12.0,17.0,56,0.00,,,0.00,,2013-02-04 01:01:00,
2013-02-03 20:11:00,68.0,52.0,30.08,NNE,31,12.0,17.0,56,0.00,,,0.00,,2013-02-04 01:11:00,
2013-02-03 20:21:00,68.0,51.0,30.09,NE,53,12.0,16.0,55,0.00,,,0.00,,2013-02-04 01:21:00,
2013-02-03 20:32:00,68.0,51.0,26.41,NE,51,11.0,17.0,54,0.00,,,0.00,,2013-02-04 01:32:00,
2013-02-03 20:42:00,68.0,51.0,26.41,NE,51,11.0,17.0,54,0.00,,,0.00,,2013-02-04 01:42:00,
2013-02-03 20:52:00,68.0,50.0,30.09,NE,48,13.0,17.0,52,0.00,,,0.00,,2013-02-04 01:52:00,
2013-02-03 21:02:00,68.0,50.0,30.09,ENE,59,12.0,17.0,52,0.00,,,0.00,,2013-02-04 02:02:00,
2013-02-03 21:11:00,68.0,50.0,30.09,ENE,59,12.0,17.0,52,0.00,,,0.00,,2013-02-04 02:11:00,
2013-02-03 21:21:00,68.0,50.0,26.40,NE,44,11.0,17.0,52,0.00,,,0.00,,2013-02-04 02:21:00,
2013-02-03 21:32:00,68.0,46.0,26.40,NNE,27,13.0,19.0,45,0.00,,,0.00,,2013-02-04 02:32:00,
2013-02-03 21:42:00,68.0,46.0,26.40,NNE,27,13.0,19.0,45,0.00,,,0.00,,2013-02-04 02:42:00,
2013-02-03 21:52:00,68.0,46.0,30.10,NE,52,13.0,18.0,45,0.00,,,0.00,,2013-02-04 02:52:00,
2013-02-03 22:02:00,67.0,44.0,30.10,NE,36,13.0,20.0,44,0.00,,,0.00,,2013-02-04 03:02:00,
2013-02-03 22:11:00,67.0,44.0,30.10,NE,51,13.0,18.0,43,0.00,,,0.00,,2013-02-04 03:11:00,
2013-02-03 22:21:00,67.0,44.0,30.10,NE,51,13.0,18.0,43,0.00,,,0.00,,2013-02-04 03:21:00,
2013-02-03 22:32:00,67.0,44.0,30.10,NE,53,14.0,19.0,44,0.00,,,0.00,,2013-02-04 03:32:00,
2013-02-03 22:42:00,67.0,44.0,30.10,NE,53,14.0,19.0,44,0.00,,,0.00,,2013-02-04 03:42:00,
2013-02-03 22:52:00,67.0,41.0,30.11,NE,55,15.0,20.0,38,0.00,,,0.00,,2013-02-04 03:52:00,
2013-02-03 23:01:00,67.0,43.0,30.10,NE,56,15.0,21.0,41,0.00,,,0.00,,2013-02-04 04:01:00,
2013-02-03 23:11:00,67.0,43.0,30.10,NE,56,15.0,21.0,41,0.00,,,0.00,,2013-02-04 04:11:00,
2013-02-03 23:21:00,67.0,45.0,30.11,NE,56,13.0,19.0,45,0.00,,,0.00,,2013-02-04 04:21:00,
2013-02-03 23:32:00,67.0,45.0,30.10,ENE,67,14.0,20.0,45,0.00,,,0.00,,2013-02-04 04:32:00,
2013-02-03 23:42:00,67.0,45.0,30.10,ENE,67,14.0,20.0,45,0.00,,,0.00,,2013-02-04 04:42:00,
2013-02-03 23:52:00,66.0,45.0,30.10,NE,40,15.0,20.0,46,0.00,,,0.00,,2013-02-04 04:52:00,